Temperature
13 13 13 13 12 12 12 12 12 12 12 12 12 12 12 12 12 12 12 12 12 12 12 12 12 12 11 12 11 11 11 11 11 11 11 11 10 10
12 12 12 12 12 12 12 12 12 12 12 12 12 12 12 12 11 11 12 12 12 11 11 11 11 11 11 11 11 11 11 11 11 11 11 11 10 10
12 12 12 12 12 12 12 12 12 12 12 12 12 11 11 11 11 11 11 11 11 11 11 11 11 11 11 11 11 11 11 11 11 11 10 10 10 10
12 12 12 12 12 12 12 12 12 12 11 11 11 11 11 11 11 11 11 11 11 11 11 11 11 10 10 10 10 10 10 10 10 10 10 10 10 10
12 12 12 12 12 11 11 11 11 11 11 11 11 11 11 11 11 11 11 11 10 10 10 10 10 10 10 10 10 10 10 10 10 10 10 10 10 10
12 12 11 11 11 11 11 11 11 11 11 11 11 11 11 11 11 10 10 10 10 10 10 10 10 10 10 10 10 10 10 10 10 10 9 9 10 10
12 12 11 11 11 11 11 11 10 10 10 10 10 10 10 10 10 10 10 10 10 10 10 10 10 10 10 10 10 9 9 9 9 9 9 9 9 9
12 11 11 11 11 11 11 10 10 10 10 10 10 10 10 10 10 10 10 10 10 10 10 10 9 9 9 9 9 9 9 9 9 9 9 9 9 9
11 11 11 11 11 11 10 10 10 10 10 10 10 10 10 10 9 9 9 9 9 9 9 9 9 9 9 9 9 9 8 8 8 8 8 9 9 9
11 11 11 11 11 10 10 10 10 10 10 10 9 9 9 9 9 9 9 9 9 9 9 9 9 9 9 9 9 8 8 8 8 8 8 8 8 8
11 11 11 11 10 10 10 10 10 10 10 9 9 9 9 9 9 9 9 8 9 9 8 8 8 8 9 9 8 8 8 8 8 8 8 8 8 8
11 11 10 10 10 10 10 10 10 10 9 9 9 9 9 9 9 9 8 8 8 8 8 8 8 8 7 8 8 8 8 8 8 7 7 7 7 7
10 10 10 10 10 10 10 9 9 9 9 9 9 9 9 9 9 8 8 8 8 8 8 7 7 7 7 7 8 8 7 7 7 7 7 7 7 7
10 10 10 10 10 9 9 9 9 9 9 8 8 8 8 8 8 8 8 8 8 8 8 7 7 7 7 7 7 7 7 7 7 7 7 7 7 7
10 10 9 9 9 9 9 9 9 8 8 8 8 8 8 8 8 7 7 7 7 7 7 7 7 6 6 6 6 7 6 6 6 6 7 6 6 6
9 9 9 9 9 9 9 8 8 8 8 8 8 7 7 7 7 7 7 7 7 7 7 6 6 6 6 6 6 6 6 6 6 6 6 6 6 6
9 9 9 8 8 8 8 8 8 8 8 7 7 7 7 7 7 7 6 6 6 6 6 6 6 6 5 5 5 6 5 6 5 5 5 6 6 6
8 8 8 8 8 8 8 7 7 7 7 7 7 7 6 6 6 6 6 6 5 5 5 5 5 5 5 5 5 5 5 5 5 5 5 5 5 5
8 7 7 7 7 7 7 7 7 7 7 6 6 6 6 5 5 5 5 5 5 5 5 5 4 4 4 4 5 5 4 4 4 4 4 4 4 5
7 7 7 7 7 7 7 6 6 6 6 6 6 5 5 5 5 5 5 5 4 4 4 4 4 4 4 4 4 4 4 4 4 3 4 4 4 4
7 7 6 6 6 6 6 6 6 6 5 5 5 5 5 4 4 4 4 4 4 4 4 4 4 3 3 3 3 3 4 3 3 3 3 3 3 3
6 6 6 6 6 6 6 6 5 5 5 5 5 5 4 4 4 4 4 4 4 4 3 3 3 3 3 3 3 3 3 3 3 2 2 2 1 1
6 6 6 5 5 5 5 5 5 5 5 5 5 4 4 4 4 4 4 3 3 3 3 3 3 2 2 2 2 2 2 2 2 2 2 2 2 1
Wind_Speed
1 1 1 1 1 2 3 3 4 2 3 2 2 1 2 2 2 1 1 1 1 0 1 1 2 2 2 2 2 2 2 2 2 1 1 2 2 3
1 1 0 0 1 1 2 2 2 3 3 2 2 1 1 1 1 1 1 1 1 1 1 1 1 1 1 2 1 1 2 2 2 2 2 2 2 2
1 1 1 1 1 1 1 2 2 2 3 2 1 1 1 0 0 0 1 1 1 1 1 1 1 0 1 1 1 1 1 1 1 1 2 2 2 1
2 2 2 1 1 1 1 2 2 2 3 2 1 1 1 1 0 0 1 1 1 1 2 2 2 2 1 1 1 1 1 1 1 1 1 1 1 1
3 3 3 2 2 2 2 2 2 2 2 2 2 1 1 0 1 1 1 1 1 2 2 3 3 3 3 2 2 1 1 0 0 1 0 1 1 2
4 4 4 4 4 4 3 3 2 2 2 2 2 1 1 1 1 1 1 1 1 1 2 2 3 3 3 3 3 3 3 3 2 2 2 2 2 2
4 4 4 5 6 5 3 3 3 3 3 2 2 1 2 1 2 2 2 1 1 1 1 2 2 2 3 3 4 4 4 4 4 4 3 3 3 4
5 4 4 4 5 6 6 6 6 4 4 3 3 3 4 3 2 2 2 1 2 1 1 2 1 2 3 4 5 5 5 5 5 5 5 5 5 5
5 4 4 3 4 3 4 4 5 6 7 5 4 5 4 5 4 3 3 3 3 2 2 2 1 2 4 5 6 6 5 5 5 6 6 6 6 7
5 5 5 4 4 4 3 2 2 3 5 5 5 5 5 5 5 4 4 2 1 1 2 2 2 2 3 5 6 6 6 6 7 7 7 7 7 8
4 4 5 5 5 5 4 3 2 3 3 4 5 4 4 4 6 4 3 2 1 2 1 1 1 2 2 3 5 6 7 7 7 7 7 7 8 8
3 3 5 5 5 6 5 4 4 4 2 1 1 1 2 3 6 5 5 3 2 2 2 2 1 0 2 2 2 4 5 6 7 7 8 8 8 6
3 3 4 5 5 6 6 5 6 4 3 2 2 1 1 1 2 4 4 4 4 3 3 3 2 1 2 2 2 3 3 4 5 6 8 8 8 7
4 4 4 5 5 5 4 5 5 3 2 2 2 2 2 2 2 3 4 4 4 4 5 5 3 3 2 2 3 3 3 4 4 4 6 7 8 9
4 4 4 4 4 3 4 4 3 3 3 3 3 4 3 3 2 1 1 2 1 2 3 4 3 3 3 3 3 3 3 3 3 4 4 4 5 5
3 3 3 2 2 2 2 2 2 3 4 4 4 3 2 2 2 1 1 1 1 1 2 3 4 4 3 3 3 4 3 3 3 4 4 4 5 7
3 1 1 1 2 1 1 2 2 2 3 3 3 3 2 2 2 1 1 1 2 2 2 1 2 2 3 3 3 4 4 4 4 3 3 4 5 6
3 2 3 3 4 4 4 3 3 3 4 4 3 3 3 3 3 2 1 2 3 3 2 1 0 1 2 2 4 4 4 4 3 3 3 4 6 6
3 4 4 4 5 5 5 5 4 4 4 4 4 4 3 3 3 3 3 3 3 3 2 2 2 2 2 5 4 3 3 3 3 3 3 4 6 6
3 4 4 4 4 5 5 5 4 4 4 4 4 4 4 4 3 3 3 4 4 3 3 2 3 4 5 5 4 3 4 3 3 4 4 4 5 6
3 4 4 4 4 4 5 4 4 4 4 4 4 5 5 4 4 4 4 5 4 3 4 5 5 5 2 1 2 3 3 5 5 4 4 4 4 4
4 4 4 4 3 4 4 4 4 4 4 5 5 4 4 4 5 5 4 4 4 4 4 3 2 2 2 3 5 5 5 5 5 6 6 6 4 4
4 4 4 3 3 3 3 4 4 4 4 5 4 4 4 4 4 4 4 4 4 3 3 2 2 2 2 3 4 4 5 5 4 4 5 7 9 11
Wind_Direction
173 173 186 217 193 193 183 179 173 207 257 259 261 262 244 236 250 230 244 271 304 325 4 10 11 12 7 359 9 18 14 0 349 335 340 348 9 28
169 155 172 221 154 168 180 187 185 184 220 241 236 251 241 214 234 206 234 249 261 253 277 306 351 3 8 2 10 31 37 43 44 42 34 36 28 15
183 173 209 187 162 177 171 172 179 178 208 258 254 246 175 159 359 82 269 273 275 266 254 247 241 279 359 13 54 58 49 38 48 57 57 58 40 32
200 196 233 205 197 195 180 193 196 188 188 221 245 243 221 222 187 31 337 310 278 276 256 249 237 227 225 223 162 132 76 34 15 16 31 17 27 12
202 201 220 201 226 219 200 201 197 186 177 187 218 214 236 233 85 18 1 332 293 283 275 261 242 231 228 218 210 198 177 165 275 282 317 314 289 293
213 209 213 208 217 216 211 204 186 173 164 177 199 207 220 211 144 184 304 307 288 297 304 279 251 235 233 233 229 224 225 227 234 248 266 282 278 273
224 224 224 221 220 214 210 195 180 181 177 180 196 202 211 193 205 196 209 276 287 252 288 292 262 252 258 247 242 237 236 237 243 246 250 256 264 265
224 232 235 235 234 231 226 211 191 188 192 192 202 209 225 212 193 187 174 157 274 253 191 277 236 239 260 257 246 244 243 243 243 244 248 250 257 264
224 226 235 235 229 225 232 228 221 215 204 196 204 216 211 205 182 188 197 201 224 223 172 250 253 253 269 263 251 246 246 249 247 245 246 249 255 262
225 217 216 231 224 205 198 208 227 234 223 212 212 221 215 196 183 183 192 194 237 239 172 221 240 254 281 273 254 244 246 250 252 252 252 253 255 262
233 221 212 221 225 202 187 199 234 260 247 212 217 227 226 199 167 139 142 146 242 260 192 203 247 277 278 269 264 254 253 253 254 256 259 257 257 258
239 238 226 223 222 204 195 194 218 240 225 212 226 258 237 203 185 179 180 179 193 238 206 188 222 261 291 276 271 272 260 258 255 254 258 260 256 249
226 236 235 224 222 216 208 201 215 215 196 199 214 238 248 207 209 208 195 187 192 225 198 174 192 206 226 278 289 267 257 266 264 261 262 260 255 240
220 231 231 220 217 216 212 208 209 204 177 183 205 232 237 236 230 219 214 212 214 219 197 177 189 202 213 257 275 282 277 268 261 267 268 268 262 254
223 224 224 214 210 217 217 210 201 186 174 194 220 233 237 233 218 209 200 208 239 244 201 196 191 203 208 232 252 268 281 276 257 264 272 264 260 258
234 224 215 200 190 204 212 217 209 194 191 209 221 231 228 208 199 193 202 197 206 270 287 241 221 200 221 241 237 255 256 258 271 268 272 274 268 253
197 195 187 186 199 218 224 219 208 199 209 216 213 216 214 210 216 197 184 176 204 237 260 292 298 266 242 229 244 250 255 266 267 267 270 279 274 264
180 204 218 218 216 218 219 222 217 216 219 216 213 213 213 213 213 198 188 199 223 240 247 244 251 357 342 303 243 247 255 268 280 272 264 271 282 280
198 215 219 223 223 219 218 216 220 219 212 207 211 214 211 212 211 212 210 218 234 242 246 223 206 203 253 276 283 245 246 276 286 284 277 271 279 287
219 224 226 230 230 225 222 221 220 215 208 210 210 210 208 208 214 219 220 224 232 238 250 242 226 224 234 252 264 281 266 258 259 272 284 288 287 292
231 235 234 233 237 229 225 221 219 216 212 211 213 212 209 205 213 217 219 225 226 228 239 247 250 251 261 265 283 288 294 278 264 267 272 285 295 294
228 232 237 234 240 235 226 220 219 219 214 215 217 215 210 206 211 212 213 218 224 228 239 253 261 241 229 242 264 280 297 310 299 286 274 259 255 253
232 232 234 235 237 236 223 217 215 218 216 215 213 214 209 206 208 209 213 216 220 224 236 256 264 253 251 253 266 281 288 300 307 309 299 292 279 273
Height
1533 1534 1534 1534 1534 1534 1534 1535 1536 1535 1535 1535 1535 1535 1535 1535 1535 1535 1535 1536 1536 1536 1536 1536 1535 1535 1534 1534 1534 1533 1533 1533 1533 1532 1532 1531 1530 1528
1531 1531 1532 1532 1532 1532 1532 1533 1533 1533 1532 1532 1533 1533 1533 1533 1534 1534 1534 1534 1534 1534 1534 1534 1533 1533 1533 1532 1532 1532 1531 1531 1531 1531 1531 1530 1530 1529
1529 1529 1529 1530 1530 1530 1530 1530 1530 1530 1530 1530 1531 1531 1531 1531 1531 1532 1532 1532 1532 1532 1532 1531 1531 1531 1531 1530 1530 1530 1529 1529 1529 1529 1529 1529 1529 1529
1527 1527 1527 1527 1527 1527 1527 1527 1527 1527 1528 1527 1528 1528 1529 1529 1529 1529 1529 1529 1530 1530 1529 1529 1529 1529 1529 1528 1528 1528 1528 1528 1528 1528 1528 1527 1527 1527
1525 1525 1525 1525 1524 1524 1524 1524 1524 1524 1525 1525 1525 1526 1526 1526 1526 1527 1527 1527 1527 1527 1527 1527 1526 1527 1527 1527 1526 1526 1526 1526 1526 1526 1526 1525 1525 1525
1522 1522 1522 1522 1522 1521 1521 1521 1521 1521 1522 1522 1522 1522 1523 1523 1523 1524 1524 1524 1524 1524 1524 1524 1524 1524 1524 1524 1524 1524 1524 1524 1524 1524 1524 1523 1523 1523
1519 1519 1519 1519 1519 1519 1518 1518 1518 1518 1518 1519 1519 1519 1520 1520 1520 1521 1521 1521 1521 1521 1521 1521 1521 1521 1521 1522 1522 1522 1522 1522 1522 1521 1521 1521 1521 1521
1515 1516 1516 1516 1516 1516 1515 1515 1515 1515 1515 1516 1516 1516 1516 1517 1517 1517 1518 1518 1518 1519 1518 1518 1519 1518 1518 1519 1519 1519 1519 1519 1519 1518 1518 1518 1518 1517
1512 1512 1512 1512 1512 1512 1512 1512 1512 1512 1512 1513 1512 1513 1513 1513 1514 1514 1514 1514 1515 1515 1515 1515 1516 1515 1516 1516 1516 1516 1516 1516 1515 1515 1515 1515 1514 1513
1508 1508 1508 1508 1509 1509 1508 1508 1509 1509 1509 1509 1509 1510 1510 1510 1510 1511 1511 1511 1512 1512 1512 1511 1512 1512 1512 1513 1513 1513 1513 1512 1512 1512 1511 1511 1510 1509
1504 1504 1505 1505 1505 1505 1505 1504 1505 1505 1506 1506 1506 1506 1507 1507 1507 1508 1508 1508 1508 1508 1509 1508 1508 1508 1508 1509 1509 1509 1509 1508 1508 1508 1507 1507 1506 1506
1500 1500 1500 1501 1501 1501 1501 1501 1501 1501 1502 1502 1503 1503 1503 1504 1504 1504 1504 1504 1504 1504 1505 1505 1505 1505 1504 1504 1505 1505 1505 1505 1504 1504 1503 1503 1502 1502
1496 1496 1496 1496 1497 1497 1497 1497 1497 1498 1498 1498 1499 1499 1499 1500 1500 1500 1500 1501 1501 1501 1502 1502 1501 1501 1501 1500 1500 1501 1501 1500 1500 1499 1499 1499 1498 1498
1491 1491 1492 1492 1492 1493 1493 1493 1493 1494 1494 1494 1494 1494 1494 1495 1495 1496 1496 1497 1497 1498 1498 1498 1498 1498 1497 1496 1496 1496 1496 1496 1495 1495 1494 1494 1494 1493
1486 1487 1487 1487 1488 1488 1488 1489 1489 1489 1489 1489 1489 1490 1490 1491 1492 1492 1492 1493 1493 1493 1494 1494 1494 1494 1494 1493 1492 1491 1491 1491 1491 1490 1489 1489 1489 1488
1482 1482 1483 1483 1483 1483 1484 1484 1484 1485 1485 1485 1485 1486 1486 1487 1487 1487 1487 1488 1488 1488 1489 1489 1489 1489 1489 1488 1488 1487 1487 1487 1486 1486 1485 1484 1484 1483
1477 1477 1477 1478 1478 1478 1479 1479 1479 1480 1480 1480 1481 1481 1481 1482 1482 1482 1483 1483 1483 1483 1483 1484 1484 1484 1484 1484 1483 1482 1482 1482 1481 1481 1480 1478 1478 1478
1472 1471 1472 1472 1472 1473 1473 1474 1474 1475 1475 1475 1476 1476 1476 1477 1477 1477 1478 1478 1478 1478 1479 1479 1479 1479 1479 1479 1479 1478 1477 1477 1476 1476 1475 1472 1471 1471
1466 1466 1466 1467 1467 1467 1468 1468 1469 1470 1470 1470 1471 1471 1471 1472 1472 1473 1473 1473 1473 1474 1474 1475 1474 1474 1473 1472 1473 1474 1472 1471 1470 1469 1468 1467 1465 1464
1461 1461 1461 1461 1462 1462 1462 1463 1464 1464 1465 1465 1466 1466 1467 1467 1468 1468 1468 1469 1469 1469 1469 1470 1469 1469 1469 1468 1467 1467 1467 1466 1464 1463 1462 1461 1459 1458
1456 1456 1456 1456 1456 1456 1457 1457 1458 1459 1459 1460 1461 1461 1462 1462 1463 1463 1464 1464 1464 1464 1464 1464 1464 1465 1464 1464 1462 1460 1461 1461 1460 1458 1456 1455 1453 1451
1451 1450 1451 1451 1451 1451 1451 1451 1452 1453 1454 1454 1455 1456 1456 1457 1457 1458 1458 1459 1459 1459 1459 1459 1459 1459 1459 1458 1456 1455 1455 1455 1454 1453 1452 1450 1448 1445
1446 1446 1446 1445 1445 1445 1446 1446 1446 1447 1448 1449 1449 1450 1451 1451 1452 1453 1453 1454 1454 1454 1454 1454 1454 1454 1453 1453 1452 1450 1450 1448 1447 1446 1446 1445 1444 1442